FW5669 Weather Reports


time (UTC)temp
C
wind
direction
speed
KPH
gust
KPH
rain 1hr
cm
rain 24hr
cm
rain mn
cm
humidity
%
barometer
mb
20260504043004 13 147 0.0 1.6 0.00 0.00 0.00 73 1015.2
20260504041500 13 168 0.0 3.2 0.00 0.00 0.00 73 1015.1
20260504040003 14 39 0.0 4.8 0.00 0.00 0.00 72 1014.9
20260504034502 14 136 0.0 3.2 0.00 0.00 0.00 72 1014.6
20260504033003 14 121 0.0 3.2 0.00 0.00 0.00 71 1014.4
20260504031600 15 145 0.0 4.8 0.00 0.00 0.00 72 1014.3
20260504031501 15 145 0.0 4.8 0.00 0.00 0.00 71 1014.2
20260504030002 15 128 0.0 1.6 0.00 0.00 0.00 72 1013.9
20260504024502 15 183 0.0 1.6 0.00 0.00 0.00 73 1013.9
20260504023002 15 183 0.0 0.0 0.00 0.00 0.00 73 1013.6
20260504021500 15 183 0.0 1.6 0.00 0.00 0.00 72 1013.6
20260504020002 15 207 0.0 3.2 0.00 0.00 0.00 70 1013.6
20260504014559 15 103 0.0 3.2 0.00 0.00 0.00 71 1013.4
20260504013119 15 120 0.0 1.6 0.00 0.00 0.00 71 1013.4
20260504011603 15 106 0.0 3.2 0.00 0.00 0.00 71 1013.4
20260504010106 15 181 0.0 3.2 0.00 0.00 0.00 72 1013.6
20260504004610 15 123 1.6 4.8 0.00 0.00 0.00 73 1013.6
20260504003100 15 181 0.0 3.2 0.00 0.00 0.00 73 1013.3
20260504003000 15 179 0.0 3.2 0.00 0.00 0.00 73 1013.4
20260504001608 15 184 0.0 3.2 0.00 0.00 0.00 73 1013.1
20260504000132 15 209 0.0 3.2 0.00 0.00 0.00 73 1013.3
20260504000002 15 210 0.0 3.2 0.00 0.00 0.00 73 1013.3
20260503234503 15 168 0.0 3.2 0.00 0.00 0.00 73 1013.7
20260503233000 15 224 0.0 3.2 0.00 0.00 0.00 72 1013.9
20260503231502 15 48 0.0 1.6 0.00 0.00 0.00 72 1013.9
20260503230002 15 60 0.0 3.2 0.00 0.00 0.00 73 1013.9
20260503224602 15 359 0.0 4.8 0.00 0.00 0.00 72 1014.1
20260503223059 15 188 1.6 8.0 0.00 0.00 0.00 73 1014.1
20260503221608 14 81 0.0 6.4 0.00 0.00 0.00 73 1014.0
20260503220122 14 36 0.0 4.8 0.00 0.00 0.00 74 1014.1
20260503214600 13 172 1.6 6.4 0.00 0.00 0.00 74 1014.2
20260503213100 13 191 1.6 4.8 0.00 0.00 0.00 74 1013.9
20260503211602 14 165 1.6 4.8 0.00 0.00 0.00 74 1014.0
20260503210059 14 189 3.2 6.4 0.00 0.00 0.00 73 1013.9
20260503210002 14 193 3.2 8.0 0.00 0.00 0.00 73 1013.9
20260503204605 15 206 1.6 4.8 0.00 0.00 0.00 73 1013.9
20260503203101 15 116 0.0 6.4 0.00 0.00 0.00 74 1013.9
20260503201600 15 109 1.6 8.0 0.00 0.00 0.00 76 1013.8
20260503200104 15 104 1.6 6.4 0.00 0.00 0.00 74 1013.7
20260503200005 15 83 1.6 6.4 0.00 0.00 0.00 74 1013.7
20260503194604 14 347 1.6 4.8 0.00 0.00 0.00 74 1014.1
20260503193100 13 187 1.6 6.4 0.00 0.00 0.00 75 1014.0
20260503191602 14 154 1.6 4.8 0.00 0.00 0.00 78 1014.1
20260503190059 14 168 4.8 11.3 0.00 0.00 0.00 76 1014.0
20260503190004 14 208 3.2 8.0 0.00 0.00 0.00 76 1014.0
20260503184607 14 160 1.6 6.4 0.00 0.00 0.00 76 1014.1
20260503184501 14 123 3.2 6.4 0.00 0.00 0.00 75 1014.0
20260503183100 13 127 0.0 4.8 0.00 0.00 0.00 81 1013.9
20260503181603 13 79 3.2 8.0 0.00 0.00 0.00 78 1014.0
20260503180003 13 12 1.6 8.0 0.00 0.00 0.00 84 1014.0
20260503174559 12 35 1.6 11.3 0.00 0.00 0.00 84 1013.9
20260503173112 12 358 1.6 8.0 0.00 0.00 0.00 84 1013.6
20260503171559 12 257 0.0 6.4 0.00 0.00 0.00 80 1013.5
20260503170111 12 71 1.6 11.3 0.00 0.00 0.00 82 1013.7
20260503160117 11 107 1.6 6.4 0.00 0.00 0.00 83 1013.2
20260503150103 11 114 0.0 6.4 0.00 0.00 0.00 83 1012.3
20260503110105 11 293 0.0 0.0 0.00 0.00 0.00 92 1010.6
20260503081558 12 293 0.0 1.6 0.00 0.00 0.00 89 1011.4
20260503071507 13 293 0.0 0.0 0.00 0.00 0.00 88 1011.9
20260503060116 14 293 0.0 0.0 0.00 0.00 0.00 83 1012.2
20260503054502 14 293 0.0 0.0 0.00 0.00 0.00 83 1012.3
20260503053002 15 293 0.0 0.0 0.00 0.00 0.00 82 1012.5
20260503051505 15 293 0.0 0.0 0.00 0.00 0.00 82 1012.5
20260503050003 15 293 0.0 0.0 0.00 0.00 0.00 81 1012.4
20260503044500 15 293 0.0 0.0 0.00 0.00 0.00 80 1012.3